Погода Северо-Курильск

Погода Северо-Курильск : погода сейчас, прогноз погоды и архив. Всё, что Вы хотите узнать о погоде Северо-Курильск!

Хотите узнать прогноз погоды Северо-Курильск? Тогда Вам сюда: Погода Северо-Курильск

Поиск расширенной информации на нашем сайте:

Другие новости

Новости СМИ2

Главная страница сайта

Новости сайта

03.07.2017

Напоминаем, что на нашем специализированном сайте Метеоцентр.Азия вы можете получить высокодетализированные автоматические прогнозы погоды по пунктам России, СНГ и мира в авиационном формате (включающие направление и скорость ветра, видимость, явления погоды, количество и форму облачности, нижнюю и верхнюю границу облачности).


Погода Северо-Курильск - сегодня

Время (UTC), дата Ветер
(°,м/с) 
Видим.   Явления Облачность Т
(°С)
Тd
(°С)
f(%) Тe
(°С)
Pmin
(гПа)
dP
(гПа)
Po
(мм)
O2
(г/м3)
Тmin Tmax R s Состояние
почвы
03 18.11.17 200 (Ю) 3-6{09}  2900 м  слаб. крупа{ливн. осадки}  10/10 600 м кучево-дожд. 
[Cb cap]
+1.4 -2 78 1018.4  1.3  762  306           
06 18.11.17 210 (ЮЗ) 1-2  30000 м  {ливн. осадки}  5/1 1000 м кучево-дожд., верхняя 
[Cb cap|Cs]
+1.6 -5.9 57 +2  1019.4  1.4  763  306           
09 18.11.17 150 (ЮВ) 3-5{05}  4000 м    3/0 верхняя 
[Cs]
-0.7 -6.4 65 -3  1021.5  1.7  764  309         
12 18.11.17 140 (ЮВ) 6-11{12}  4000 м    10/1 1000 м средняя 
[Sc|Ac As]
+2 -2.7 71 -1  1020.7  -0.8  763  306           
15 18.11.17 130 (ЮВ) 7-12{12}  4000 м    10/3 1000 м средняя 
[Sc|Ac As]
+3.2 -0.7 76 1019.2  -1.5  762  304           
18 18.11.17 140 (ЮВ) 12-19{22}  4000 м    6/6 1000 м кучево-дожд. 
[Cb cap]
+3.9 -0.3 74 1014.2  -4.9  758  301           
21 18.11.17 140 (ЮВ) 12-17{23}  3100 м  ливневой дождь  10/10 600 м кучево-дожд. 
[Cb cap]
+2.9 +0.8 86 -2  1012.7  -1.5  757  302  -0.1       
00 19.11.17 140 (ЮВ) 9-16{22}  4000 м  слаб. ливневой дождь  10/10 600 м кучево-дожд. 
[Cb cap]
+4.4 +1.6 82 +1  1010  -2.6  755  299           
03 19.11.17 140 (ЮВ) 12-22{24}  2100 м  ливневой дождь со снегом  10/10 600 м кучево-дожд. 
[Cb cap]
+4.8 +3 88 +1  1004.8  -5.2  751  297           
06 19.11.17 140 (ЮВ) 10-14{26}  4600 м  слаб. ливневой дождь  10/10 600 м кучево-дожд. 
[Cb cap]
+4.9 +3 87 +1  1000.3  -4.4  748  296           
09 19.11.17 170 (Ю) 3-9{17}  1000 м  сильн. ливневой дождь  10/10 600 м кучево-дожд. 
[Cb cap]
+3.9 +2.9 93 +3  994.5  -5.8  744  295    +5.4  70     
12 19.11.17 140 (ЮВ) 12-19{23}  2000 м  ливневой дождь  10/10 600 м кучево-дожд. 
[Cb cap]
+6.7 +5.7 93 +3  989.2  -5.1  740  290           
15 19.11.17 060 (СВ) 3-6{20}  4000 м  {ливн. осадки}  10/10 600 м кучево-дожд. 
[Cb cap]
+2.2 -2.3 72 +1  996.6  7.3  745  298           
18 19.11.17 220 (ЮЗ) 7-12{14}  4000 м  {ливн. осадки}  10/10 600 м кучево-дожд. 
[Cb cap]
+1.7 -4.4 64 -2  1003  6.4  750  301           
21 19.11.17 150 (ЮВ) 3-10{13}  22000 м  в посл. час ливневой снег  8/6 600 м кучево-дожд., средняя 
[Cb cap|Ac trans]
+1.4 -6.4 56 1005.3  2.3  752  302  +0.6    39  <0.5  мокрый или
старый снег
10-40% 
00 20.11.17 260 (З) 5-11{11}  30000 м  {ливн. осадки}  6/5 600 м кучево-дожд., верхняя 
[Cb cap|Ci fib]
+1.9 -6.6 53 -1  1007.2  1.8  753  302           
03 20.11.17 210 (ЮЗ) 4-9{14}  40000 м  {ливн. осадки}  5/5 600 м кучево-дожд. 
[Cb cap]
+1.9 -7.5 50 1007.6  0.4  753  302           
06 20.11.17 230 (ЮЗ) 1-3{10}  55000 м  {ливн. осадки}  4/3 1000 м верхняя 
[Cu Sc|Cc]
+0.2 -8 54 +1  1008.8  1.2  754  305           
09 20.11.17 130 (ЮВ) 1-3{05}  4000 м    6/6 600 м 
[Cu Sc]
-0.9 -7.4 61 1009.7  0.8  755  306    +2.3  0.0     
12 20.11.17 170 (Ю) 1-2{03}  4000 м  слаб. снег  9/5 600 м средняя 
[Sc|As op]
-0.9 -5.4 71 1009.5  -0.1  755  306           
15 20.11.17 тихо () {03}  4000 м  {снег}  10/4 600 м средняя 
[Sc|Ac As]
-2.3 -4.3 86 -2  1010.1  0.5  755  307           
18 20.11.17 220 (ЮЗ) 1-2{03}  4000 м  {снег}  8/5 1000 м средняя 
[Sc|As trans]
-1.6 -5.6 74 -1  1011.5  1.5  756  307           
21 20.11.17 140 (ЮВ) 5-10{10}  22000 м  слаб. ливневой снег  6/6 600 м кучево-дожд. 
[Cb cap]
-0.1 -5.1 69 -3  1013.2  1.6  758  306  -4.3    0.3  <0.5  сухой снег
50-90% 
00 21.11.17 200 (Ю) 4-4{10}  9000 м  слаб. ливневой снег  9/9 600 м кучево-дожд. 
[Cb cap]
+0.7 -5.2 65 -2  1012.4  -0.8  757  305           
03 21.11.17 180 (Ю) 4-9{11}  21000 м  {ливн. осадки}  9/9 600 м кучево-дожд. 
[Cb cap]
+1.7 -8.6 46 1011.7  -0.6  757  304           
Время (UTC), дата Ветер
(°,м/с) 
Видим.   Явления Облачность Т
(°С)
Тd
(°С)
f(%) Тe
(°С)
Pmin
(гПа)
dP
(гПа)
Po
(мм)
O2
(г/м3)
Тmin Tmax R s Состояние
почвы

Для получения пояснительной информации подведите курсор к названию столбца.

ПОГОДА Северо-Курильск - архив

Всё, что Вы хотите узнать о погоде Северо-Курильск - удобно и подробно!

Выберите нужную дату (начиная с 1 января 2015* года) и нажмите кнопку "Найти".
Будут отображены архивные сводки погоды по пункту Северо-Курильск, начиная с указанной даты.


Отображать данные в формате CSV (для использования в таблицах Excel)


Внимание! Наш архив погоды предназначен исключительно для личного некоммерческого использования в познавательных целях. Если Вам необходимы официальные справки о состоянии погоды (для производственных, юридических, коммерческих и т.п. целей), обращайтесь в органы Росгидромета.

*Примечание: данная дата относится к архиву по метеостанциям СССР (Россия, СНГ, Балтия).
Архив по метеостанциям Зарубежной Европы и Азии (кроме Китая) хранится 10 дней, по другим регионам земного шара (Китай, Африка, Америка, Австралия, Океания) - 1 день.

Северо-Курильск - район местоположения метеостанции


Название, широта, долгота, высота метеостанции:
Северо-Курильск 50.7°ш. 156.1°д. 23 м над ур. моря [Российская Федерация]

Дополнительная информация

В oтличие oт бoльшинства пoгoдных сайтoв мы публикуем пoдрoбную метеoинфoрмацию в детальнoм прoфессиoнальнoм фoрмате.

Характеристики температуры и влажнoсти вoздуха измеряются на высoте 2 м в тени вдали oт зданий и деревьев.
Скoрoсть ветра измеряется на высoте 10 м (на урoвне рoста челoвека скoрoсть ветра ниже в 1.5-2 раза). Если метеoстанция нахoдится в гoрoде или в лесу, тo скoрoсть ветра занижена на 2-4 м/с пo сравнению с oткрытым местoм. Скoрoсть ветра над акватoриями крупных рек и oзёр, а также на вершинах хoлмoв на 2-5 м/с выше, чем в oбычных услoвиях.
Атмoсфернoе давление в разных тoчках местнoсти мoжет значительнo oтличаться oт давления на метеoстанции, в зависимoсти oт услoвий рельефа (при пoдъёме на 10 м давление пoнижается примернo на 1 мм рт.ст.).